2023/02/07 00:00:00, 8.6, 0.8
2023/02/07 00:10:00, 8.6, 0.7
2023/02/07 00:20:00, 8.6, 0.6
2023/02/07 00:30:00, 8.5, 0.4
2023/02/07 00:40:00, 8.5, 0.8
2023/02/07 00:50:00, 8.6, 0.4
2023/02/07 01:00:00, 8.5, 0.5
2023/02/07 01:10:00, 8.5, 0.5
2023/02/07 01:20:00, 8.5, 0.6
2023/02/07 01:30:00, 8.5, 0.7
2023/02/07 01:40:00, 8.6, 0.6
2023/02/07 01:50:00, 8.4, 0.9
2023/02/07 02:00:00, 8.4, 1.2
2023/02/07 02:10:00, 8.3, 0.9
2023/02/07 02:20:00, 8.4, 0.9
2023/02/07 02:30:00, 8.4, 0.8
2023/02/07 02:40:00, 8.4, 0.7
2023/02/07 02:50:00, 8.5, 0.7
2023/02/07 03:00:00, 8.4, 0.5
2023/02/07 03:10:00, 8.4, 1.2
2023/02/07 03:20:00, 8.4, 1.3
2023/02/07 03:30:00, 8.3, 1.2
2023/02/07 03:40:00, 8.1, 1.2
2023/02/07 03:50:00, 8.1, 1.2
2023/02/07 04:00:00, 8.1, 1.4
2023/02/07 04:10:00, 8.2, 1.4
2023/02/07 04:20:00, 8.2, 1.2
2023/02/07 04:30:00, 8.2, 1.0
2023/02/07 04:40:00, 8.3, 1.1
2023/02/07 04:50:00, 8.2, 0.8
2023/02/07 05:00:00, 8.2, 0.8
2023/02/07 05:10:00, 8.2, 1.0
2023/02/07 05:20:00, 8.1, 0.7
2023/02/07 05:30:00, 8.1, 0.7
2023/02/07 05:40:00, 8.1, 0.7
2023/02/07 05:50:00, 8.1, 0.5
2023/02/07 06:00:00, 8.1, 0.7
2023/02/07 06:10:00, 8.1, 0.6
2023/02/07 06:20:00, 8.1, 0.8
2023/02/07 06:30:00, 8.2, 0.8
2023/02/07 06:40:00, 8.1, 0.9
2023/02/07 06:50:00, 8.1, 1.1
2023/02/07 07:00:00, 8.1, 0.9
2023/02/07 07:10:00, 8.2, 0.9
2023/02/07 07:20:00, 8.2, 0.8
2023/02/07 07:30:00, 8.3, 1.3
2023/02/07 07:40:00, 8.3, 1.2
2023/02/07 07:50:00, 8.1, 2.0
2023/02/07 08:00:00, 8.0, 1.7
2023/02/07 08:10:00, 7.7, 2.2
2023/02/07 08:20:00, 7.6, 2.0
2023/02/07 08:30:00, 7.5, 2.5
2023/02/07 08:40:00, 7.5, 2.7
2023/02/07 08:50:00, 7.4, 2.8
2023/02/07 09:00:00, 7.3, 3.2
2023/02/07 09:10:00, 7.3, 3.6
2023/02/07 09:20:00, 7.2, 4.4
2023/02/07 09:30:00, 7.2, 5.0
2023/02/07 09:40:00, 7.1, 6.3
2023/02/07 09:50:00, 7.0, 5.6
2023/02/07 10:00:00, 7.0, 6.6
2023/02/07 10:10:00, 7.0, 7.6
2023/02/07 10:20:00, 6.9, 7.0
2023/02/07 10:30:00, 6.8, 6.7
2023/02/07 10:40:00, 6.6, 6.9
2023/02/07 10:50:00, 6.6, 7.6
2023/02/07 11:00:00, 6.5, 8.9
2023/02/07 11:10:00, 6.4, 8.7
2023/02/07 11:20:00, 6.3, 8.5
2023/02/07 11:30:00, 5.9, 8.9
2023/02/07 11:40:00, 5.7, 8.9
2023/02/07 11:50:00, 5.7, 9.2
2023/02/07 12:00:00, 5.7, 9.6
2023/02/07 12:10:00, 5.7, 9.7
2023/02/07 12:20:00, 5.6, 9.6
2023/02/07 12:30:00, 5.5,10.0
2023/02/07 12:40:00, 5.1,10.3
2023/02/07 12:50:00, 5.0,10.7
2023/02/07 13:00:00, 5.0,11.2
2023/02/07 13:10:00, 4.6,11.2
2023/02/07 13:20:00, 4.6,10.2
2023/02/07 13:30:00, 4.6,11.5
2023/02/07 13:40:00, 4.3,12.5
2023/02/07 13:50:00, 4.3,11.3
2023/02/07 14:00:00, 4.2,11.9
2023/02/07 14:10:00, 4.5,12.0
2023/02/07 14:20:00, 4.8,11.6
2023/02/07 14:30:00, 4.3,11.1
2023/02/07 14:40:00, 4.1,11.4
2023/02/07 14:50:00, 4.0,11.4
2023/02/07 15:00:00, 3.9,11.3
2023/02/07 15:10:00, 3.8,10.6
2023/02/07 15:20:00, 3.9, 9.6
2023/02/07 15:30:00, 3.7, 9.9
2023/02/07 15:40:00, 3.6, 9.6
2023/02/07 15:50:00, 3.7, 9.5
2023/02/07 16:00:00, 3.6, 8.6
2023/02/07 16:10:00, 3.7, 7.8
2023/02/07 16:20:00, 3.7, 7.1
2023/02/07 16:30:00, 3.5, 6.4
2023/02/07 16:40:00, 3.6, 6.0
2023/02/07 16:50:00, 3.2, 5.8
2023/02/07 17:00:00, 3.3, 5.5
2023/02/07 17:10:00, 3.3, 5.5
2023/02/07 17:20:00, 3.4, 5.0
2023/02/07 17:30:00, 3.5, 4.7
2023/02/07 17:40:00, 4.2, 4.2
2023/02/07 17:50:00, 3.9, 3.7
2023/02/07 18:00:00, 3.3, 3.3
2023/02/07 18:10:00, 3.0, 3.1
2023/02/07 18:20:00, 3.1, 2.9
2023/02/07 18:30:00, 3.1, 2.8
2023/02/07 18:40:00, 3.0, 2.7
2023/02/07 18:50:00, 3.0, 2.6
2023/02/07 19:00:00, 2.9, 2.3
2023/02/07 19:10:00, 3.0, 2.1
2023/02/07 19:20:00, 3.0, 2.0
2023/02/07 19:30:00, 3.0, 1.6
2023/02/07 19:40:00, 3.0, 1.4
2023/02/07 19:50:00, 3.0, 1.2
2023/02/07 20:00:00, 2.9, 1.3
2023/02/07 20:10:00, 3.0, 1.4
2023/02/07 20:20:00, 3.1, 1.0
2023/02/07 20:30:00, 3.0, 0.9
2023/02/07 20:40:00, 3.0, 0.7
2023/02/07 20:50:00, 3.0, 1.0
2023/02/07 21:00:00, 3.0, 0.6
2023/02/07 21:10:00, 3.0, 0.6
2023/02/07 21:20:00, 3.2, 0.4
2023/02/07 21:30:00, 3.1, 0.4
2023/02/07 21:40:00, 3.1, 0.6
2023/02/07 21:50:00, 3.1, 0.5
2023/02/07 22:00:00, 3.1, 0.4
2023/02/07 22:10:00, 3.1, 0.2
2023/02/07 22:20:00, 3.1, 0.2
2023/02/07 22:30:00, 3.1, 0.0
2023/02/07 22:40:00, 3.1,-0.3
2023/02/07 22:50:00, 3.1,-0.2
2023/02/07 23:00:00, 3.1, 0.0
2023/02/07 23:10:00, 3.1,-0.1
2023/02/07 23:20:00, 3.1, 0.1
2023/02/07 23:30:00, 3.1, 0.1
2023/02/07 23:40:00, 3.1,-0.1
2023/02/07 23:50:00, 3.1,-0.2
